Regional Weather Roundup
Issued by NWS Northern Indiana

Home | Current Version | Previous Version | Text Only | Print | Product List | Glossary On
Versions: 1 2 3 4 5 6 7 8 9 10 11 12 13 14 15 16 17 18 19 20 21 22 23 24 25 26 27 28 29 30 31 32 33 34 35 36 37 38 39 40 41 42 43 44 45 46 47 48 49 50
424
ASUS43 KIWX 060310
RWRIWX

KIWX WEATHER ROUNDUP
NATIONAL WEATHER SERVICE NORTHERN INDIANA
1000 PM EST MON DEC 05 2016

NOTE: "FAIR" INDICATES FEW OR NO CLOUDS BELOW 12,000 FEET WITH NO
SIGNIFICANT WEATHER AND/OR OBSTRUCTIONS TO VISIBILITY.

* THESE STATIONS ARE NOT UNDER NWS QUALITY CONTROL. THEY ALSO MAY NOT
  REPORT WEATHER SUCH AS PRECIPITATION OR FOG.

INZ001>027-060400-
NORTHERN INDIANA

CITY           SKY/WX    TMP DP  RH WIND       PRES   REMARKS
GARY*          CLOUDY    34  34 100 SE8       29.99R FOG     WCI  27
VALPARAISO     MOCLDY    31  29  92 E8        29.98F FOG     WCI  23
MICHIGAN CITY* CLOUDY    32  32 100 SE5       30.00S WCI  27
LAPORTE*       CLOUDY   N/A N/A N/A E9        29.99S HAZE
KNOX*          PTCLDY    30  19  64 E5        29.99S WCI  25
SOUTH BEND     CLOUDY    31  30  96 E9        30.00F WCI  23
GOSHEN         CLEAR     30  27  88 E6        30.00F FOG     WCI  24
MONTICELLO*    CLEAR     32  29  88 E6        29.94F WCI  27
LOGANSPORT*    CLEAR     32  30  93 E6        29.96F WCI  26
ROCHESTER*     CLEAR     32  32 100 E7        29.98S WCI  26
WARSAW*        CLEAR     30  28  93 E7        30.00S WCI  23
ANGOLA*        CLEAR     28  27  93 E3        30.00F
FORT WAYNE     PTCLDY    29  26  89 E7        30.01S WCI  22
HUNTINGTON*    CLEAR     31  30  96 E5        29.99S WCI  26
PERU/GRISSOM   CLEAR     32  32  99 E8        29.94F WCI  25
MARION*        CLEAR     33  31  94 E8        29.96F WCI  25

$$
INZ028>050-060400-
CENTRAL INDIANA

CITY           SKY/WX    TMP DP  RH WIND       PRES   REMARKS
LAFAYETTE      PTCLDY    32  31  96 E8        29.93F WCI  25
KOKOMO*        CLEAR     32  31  96 E8        29.95F WCI  25
MUNCIE*        CLEAR     32  29  88 CALM      29.96F
INDIANAPOLIS   MOCLDY    36  31  82 E12       29.92F

$$
MIZ043>046-050>051-056>058-064>065-071>073-077>080-060400-
SOUTHWEST LOWER MICHIGAN

CITY           SKY/WX    TMP DP  RH WIND       PRES   REMARKS
BATTLE CREEK   CLEAR     30  28  92 CALM      30.02F
BENTON HARBOR  CLOUDY    32  29  88 SE13      30.00F FOG     WCI  22
COLDWATER*     CLEAR     29  28  97 CALM      30.01S FOG
HILLSDALE*     CLEAR     28  27  93 SE3       30.01S FOG
HOLLAND        PTCLDY    32  28  85 SE8       30.01F WCI  25
GRAND RAPIDS   CLOUDY    32  28  85 SE7       30.03F WCI  26
KALAMAZOO      CLOUDY    31  27  85 E5        30.02F WCI  26
STURGIS*       PTCLDY    29  28  92 E3        30.01S FOG
THREE RIVERS*  CLOUDY    32  30  92 SE3       30.02F

$$
OHZ001>008-015>018-024>025-060400-
NORTHWEST OHIO

CITY           SKY/WX    TMP DP  RH WIND       PRES   REMARKS
WAUSEON*       FAIR      30  28  93 E5        30.03F WCI  25
DEFIANCE       CLEAR     29  25  85 E3        30.03F
FINDLAY        CLEAR     31  25  78 SE6       30.02F WCI  25
TOLEDO EXPRESS CLEAR     26  26 100 CALM      30.04F
TOLEDO METCALF CLEAR     31  28  89 E5        30.05F WCI  26
LIMA           CLEAR     30  28  92 E8        30.00F WCI  22

$$
AND FOR LAKE MICHIGAN COASTAL AND OPEN LAKE BUOY OBSERVATIONS

STATION/POSITION TEMP    WIND        PRES    VSBY  WAVE
                 AIR SEA DIR/SP/G                  HT/PER
                 (F)     (DEG/KT/KT) (MB)    (MI)  (FT/S)
CALUMET HARBOR    33     150/  3/  5 1014.9S
BURNS HARBOR      33     120/  6/ 12 1015.9R
SAINT JOSEPH      32     240/  1/  7 1016.3

$$
&&




USA.gov is the U.S. government's official web portal to all federal, state and local government web resources and services.